[[{"header":{"parameterUnit":"m.s-1","parameterCategory":1,"la1":30.2991,"la2":30.254,"lo1":-89.0895,"lo2":-89.0444,"dy":0.0017,"dx":0.0017,"nx":28,"ny":28,"refTime":"2024-04-11T03:00:00:Z","depth":0,"parameterNumber":2,"parameterNumberName":"U-component_of_WINDS"},"data":[0,0,0,0,0,0,0,0,0,0,0,0,0,0,0,0,0,0,0,0,0,0,0,0,0,0,0,0,0,0,0,0,0,0,0,0,0,0,0,0,0,0,0,0,0,0,0,0,0,0,0,0,0,0,0,0,0,0,9.2886,9.2888,0,9.3092,9.3095,9.3097,9.2985,9.298,9.2974,9.2969,9.3183,9.3194,9.3205,0,0,0,0,0,0,0,0,0,0,0,0,0,9.2396,9.2406,9.2885,9.2888,9.2891,9.3092,9.3095,9.3098,9.2986,9.2979,9.2972,9.2966,9.3179,9.3192,9.3206,0,0,0,0,0,0,0,0,0,0,0,0,0,9.2607,9.2409,9.2885,9.2859,9.2859,9.3091,9.3095,9.3098,9.2988,9.2979,9.2971,9.2963,9.3175,9.3191,9.3207,9.3478,0,0,9.3258,9.3265,0,0,0,0,0,0,0,0,9.2595,9.2625,9.2861,9.2861,9.2862,9.3004,9.3001,9.3226,9.299,9.2939,9.2968,9.2959,9.3131,9.315,9.3208,9.3488,9.3497,9.3259,9.3269,9.3276,9.3281,0,0,0,0,0,0,0,9.2581,9.2615,9.2967,9.2864,9.2865,9.2838,9.2859,9.3043,9.308,9.2943,9.2935,9.2961,9.3129,9.3192,9.3212,9.35,9.3259,9.3273,9.3283,9.329,9.4012,9.4021,0,0,0,0,0,0,9.2567,9.2604,9.2961,9.2973,9.2705,9.2854,9.2877,9.2967,9.3077,9.3086,9.2968,9.2955,9.3168,9.3193,9.3219,9.3542,9.3276,9.3291,9.3301,9.4002,9.4014,9.4024,0,0,0,0,0,0,9.2557,9.26,9.2952,9.2787,9.283,9.2871,9.2974,9.2976,9.3038,9.3096,9.3102,9.3025,9.3162,9.3196,9.3414,9.3548,9.3299,9.3314,9.3991,9.4006,9.4019,9.4191,0,0,0,0,0,0,9.2544,9.2597,9.27,9.279,9.2839,9.3144,9.2982,9.2986,9.3066,9.3051,9.3152,9.316,9.3158,9.339,9.343,9.3566,9.3326,9.398,9.3998,9.4014,9.4173,9.4209,9.4239,0,0,0,0,0,9.2526,9.2741,9.2706,9.2749,9.2968,9.3152,9.318,9.3172,9.3078,9.3181,9.3219,9.3157,9.3527,9.3413,9.3458,9.36,9.3971,9.3993,9.4013,9.4158,9.4202,9.4238,0,0,0,0,0,0,9.2666,9.2752,9.2714,9.2964,9.3051,9.3132,9.3263,9.3219,9.3336,9.3317,9.3304,9.3327,9.3554,9.3599,9.3471,9.3867,9.3734,9.3765,9.383,9.3871,9.3904,9.3888,9.334,0,0,0,0,0,9.2726,9.2867,9.2935,9.3149,9.3194,9.3222,9.3301,9.3288,9.3379,9.3415,9.3469,9.356,9.3696,9.3786,9.3915,9.4179,9.4199,9.4299,9.4332,9.4359,9.4386,9.4528,9.4573,9.4093,9.4093,9.4092,0,0,9.2851,9.2915,9.3006,9.3178,9.3245,9.3392,9.3254,9.3415,9.3524,9.344,9.3649,9.3691,9.3792,9.4034,9.4143,9.4078,9.4523,9.4386,9.4407,9.4419,9.4554,9.46,9.464,9.4107,9.4104,9.4102,0,0,9.3154,9.3217,9.3402,9.3471,9.3572,9.3589,9.3633,9.3722,9.3747,9.3956,9.3895,9.4025,9.4261,9.4335,9.4403,9.4734,9.4681,9.4777,9.4949,9.5088,9.5126,9.5159,9.5277,9.5319,9.4803,9.4804,9.4804,0,9.3297,9.3516,9.3503,9.3669,9.3747,9.3676,9.3863,9.3931,9.407,9.4126,9.4051,9.4344,9.4407,9.4665,9.4746,9.4804,9.4854,9.4765,9.5121,9.5155,9.5186,9.5297,9.5342,9.4814,9.4813,9.4812,9.4811,0,9.3686,9.3839,9.3976,9.411,9.4204,9.438,9.4394,9.449,9.4469,9.4494,9.4707,9.478,9.4922,9.4983,9.4964,9.5239,9.5195,9.5122,9.4987,9.5243,9.5347,9.539,9.483,9.4826,9.4823,9.482,0,0,9.4083,9.4208,9.4258,9.4318,9.4425,9.4543,9.4716,9.4854,9.4936,9.5035,9.518,9.538,9.5312,9.539,9.538,9.5502,9.5758,9.5413,9.5415,9.5474,9.6065,9.6119,9.6168,9.5724,9.5732,9.5739,9.6056,0,9.4392,9.4693,9.4687,9.4967,9.5107,9.5043,9.5193,9.5275,9.5303,9.5427,9.5458,9.56,9.55,9.5546,9.5665,9.5702,9.5877,9.5679,9.5859,9.5865,9.5835,9.6223,9.6281,9.6577,9.6097,9.6104,9.6109,0,9.4794,9.4904,9.5198,9.5283,9.5342,9.5478,9.5603,9.5722,9.5814,9.5826,9.5913,9.5882,9.6058,9.592,9.6162,9.6028,9.6101,9.6131,9.6142,9.6158,9.6002,9.6249,9.6671,9.6715,9.6173,9.6168,9.6163,0,9.5053,9.5275,9.5479,9.5533,9.5638,9.5735,9.5783,9.5866,9.595,9.606,9.6113,9.6243,9.6314,9.6416,9.6421,9.632,9.6666,9.6528,9.668,9.668,9.6755,9.675,9.7194,9.6805,9.6804,9.6803,9.6802,0,9.5399,9.5581,9.5597,9.5723,9.5925,9.5916,9.6117,9.6156,9.6231,9.6363,9.6315,9.6441,9.6441,9.6569,9.6575,9.6774,9.6807,9.6821,9.6821,9.6825,9.6824,9.6872,9.6852,9.6815,9.6812,9.681,9.6808,0,9.5722,9.5741,9.5959,9.604,9.6065,9.621,9.628,9.6399,9.6422,9.6591,9.663,9.6666,9.6815,9.683,9.7004,9.7007,9.7247,9.7225,9.7216,9.7212,9.7363,9.7349,9.7853,9.7919,9.7487,9.7491,9.7495,0,9.5942,9.608,9.6176,9.626,9.6314,9.6451,9.6535,9.6532,9.6622,9.6736,9.6843,9.6986,9.71,9.734,9.7383,9.7515,9.7495,9.7662,9.7514,9.7514,9.7496,9.7487,9.7501,9.7691,9.7696,9.77,9.7703,0,9.6329,9.6331,9.6453,9.658,9.6681,9.6781,9.6874,9.6946,9.6954,9.7058,9.7208,9.7297,9.7472,9.7615,9.7745,9.7795,9.7751,9.7749,9.7791,9.7797,9.7785,9.7793,9.7293,9.7737,9.7734,9.7731,9.773,9.7728,9.6607,9.6726,9.6812,9.695,9.7019,9.7107,9.7223,9.7261,9.7386,9.7527,9.7518,9.7684,9.7772,9.7941,9.8001,9.8131,9.8075,9.8136,9.8152,9.8167,9.8181,9.7766,9.8155,9.8154,9.8153,9.8152,9.8151,0,9.699,9.7042,9.7169,9.73,9.7409,9.7357,9.7457,9.7552,9.7698,9.7783,9.7896,9.8069,9.8207,9.826,9.8395,9.8489,9.8472,9.8524,9.8517,9.8529,9.8224,9.8174,9.8536,9.8536,9.8536,9.8535,9.8535,9.8535,9.7203,9.7402,9.7414,9.7647,9.7697,9.7859,9.792,9.8001,9.8069,9.8263,9.8377,9.8411,9.8483,9.8623,9.8747,9.8759,9.8811,9.8872,9.8876,9.859,9.8551,9.8514,9.8466,9.8884,9.8884,9.9169,9.9172,9.9174]},{"header":{"parameterUnit":"m.s-1","parameterCategory":1,"la1":30.2991,"la2":30.254,"lo1":-89.0895,"lo2":-89.0444,"dy":0.0017,"dx":0.0017,"nx":28,"ny":28,"refTime":"2024-04-11T03:00:00:Z","depth":0,"parameterNumber":3,"parameterNumberName":"V-component_of_WINDS"},"data":[0,0,0,0,0,0,0,0,0,0,0,0,0,0,0,0,0,0,0,0,0,0,0,0,0,0,0,0,0,0,0,0,0,0,0,0,0,0,0,0,0,0,0,0,0,0,0,0,0,0,0,0,0,0,0,0,0,0,1.4136,1.4137,0,1.4215,1.4216,1.4217,1.4216,1.4215,1.4214,1.4213,1.4294,1.4297,1.4301,0,0,0,0,0,0,0,0,0,0,0,0,0,1.3986,1.3989,1.4136,1.4137,1.4138,1.4215,1.4216,1.4217,1.4216,1.4215,1.4214,1.4213,1.4293,1.4297,1.4301,0,0,0,0,0,0,0,0,0,0,0,0,0,1.4057,1.399,1.4136,1.4147,1.4149,1.4214,1.4216,1.4217,1.4216,1.4215,1.4213,1.4212,1.4292,1.4297,1.4301,1.4361,0,0,1.4316,1.4318,0,0,0,0,0,0,0,0,1.4053,1.4062,1.4144,1.4146,1.4148,1.4204,1.4193,1.4265,1.4217,1.4191,1.4213,1.4211,1.4266,1.4272,1.4291,1.4365,1.4369,1.4316,1.4319,1.4321,1.4322,0,0,0,0,0,0,0,1.4048,1.4059,1.4167,1.4146,1.4148,1.4148,1.4157,1.4207,1.4236,1.4193,1.4193,1.4202,1.4266,1.4286,1.4292,1.437,1.4316,1.432,1.4323,1.4325,1.4498,1.45,0,0,0,0,0,0,1.4041,1.4055,1.4165,1.417,1.4096,1.4152,1.4162,1.4188,1.4235,1.4241,1.4204,1.4202,1.4279,1.4287,1.4295,1.437,1.4321,1.4325,1.4328,1.4496,1.4499,1.4501,0,0,0,0,0,0,1.4038,1.4051,1.4162,1.4112,1.4126,1.4157,1.4186,1.419,1.421,1.4243,1.4249,1.4218,1.4278,1.4289,1.4345,1.4372,1.4327,1.4332,1.4494,1.4497,1.45,1.4518,0,0,0,0,0,0,1.4033,1.4049,1.4072,1.4113,1.4129,1.421,1.4188,1.4193,1.4218,1.4216,1.4259,1.4264,1.4277,1.4338,1.435,1.4378,1.4335,1.4492,1.4496,1.4499,1.4515,1.4521,1.4526,0,0,0,0,0,1.4028,1.4074,1.4074,1.4087,1.4158,1.4211,1.4221,1.4235,1.422,1.4244,1.4265,1.4263,1.4367,1.4344,1.4357,1.4387,1.449,1.4495,1.4498,1.4513,1.452,1.4526,0,0,0,0,0,0,1.4037,1.408,1.4079,1.414,1.4172,1.4211,1.4241,1.4242,1.4279,1.4276,1.4292,1.4302,1.4358,1.4378,1.4351,1.4448,1.4427,1.4434,1.4433,1.444,1.4445,1.444,1.4339,0,0,0,0,0,1.4046,1.4085,1.412,1.4171,1.4187,1.4211,1.4235,1.4243,1.4277,1.429,1.4316,1.4349,1.4389,1.4416,1.4454,1.4517,1.4527,1.4544,1.455,1.4554,1.456,1.4596,1.4604,1.4514,1.4514,1.4514,0,0,1.4065,1.4093,1.4117,1.4173,1.4199,1.424,1.4223,1.4266,1.4297,1.4297,1.4352,1.4372,1.441,1.447,1.4498,1.4488,1.4587,1.4559,1.4562,1.4566,1.4601,1.4609,1.4617,1.4516,1.4516,1.4516,0,0,1.4121,1.4146,1.4191,1.4217,1.4255,1.4271,1.4282,1.4321,1.4334,1.439,1.4391,1.4427,1.4496,1.4523,1.4546,1.4612,1.4611,1.4624,1.4653,1.4687,1.4694,1.4701,1.4725,1.4733,1.463,1.463,1.463,0,1.414,1.4201,1.4214,1.4258,1.4283,1.4284,1.433,1.4355,1.4405,1.4422,1.441,1.4497,1.4523,1.4589,1.4605,1.4623,1.4637,1.462,1.4692,1.4698,1.4705,1.4728,1.4737,1.4631,1.4631,1.4631,1.4631,0,1.4222,1.4265,1.4296,1.4344,1.4373,1.4417,1.4438,1.4465,1.447,1.4488,1.4544,1.4575,1.462,1.4636,1.4642,1.4704,1.4697,1.4688,1.4668,1.4714,1.4737,1.4746,1.4633,1.4632,1.4632,1.4632,0,0,1.4287,1.4341,1.4353,1.4375,1.4418,1.4451,1.4495,1.4539,1.4563,1.4597,1.4635,1.4693,1.4686,1.4712,1.472,1.475,1.4801,1.4738,1.4739,1.475,1.4872,1.4879,1.4889,1.4801,1.4802,1.4804,1.4869,0,1.4348,1.4428,1.4441,1.4511,1.4551,1.4552,1.4592,1.4622,1.4639,1.4676,1.4694,1.4736,1.4722,1.4738,1.4767,1.4789,1.4826,1.4784,1.4837,1.4839,1.4829,1.4901,1.4908,1.4969,1.4878,1.488,1.4881,0,1.443,1.4466,1.454,1.4578,1.4595,1.463,1.4672,1.4706,1.4741,1.4751,1.478,1.4785,1.4832,1.4809,1.4874,1.4845,1.4867,1.4881,1.4884,1.489,1.4864,1.491,1.4988,1.4998,1.4894,1.4893,1.4892,0,1.4471,1.4538,1.4591,1.461,1.4655,1.468,1.4699,1.4733,1.4758,1.4795,1.4812,1.4853,1.4876,1.4908,1.4924,1.4905,1.4988,1.4966,1.4999,1.4999,1.5017,1.5016,1.5101,1.503,1.503,1.5029,1.5029,0,1.4539,1.4584,1.461,1.4643,1.4694,1.4709,1.4759,1.4778,1.4808,1.4845,1.4848,1.4883,1.4902,1.4939,1.4952,1.5004,1.5014,1.5024,1.5027,1.5025,1.5024,1.504,1.5037,1.5032,1.5031,1.5031,1.503,0,1.4594,1.4613,1.4671,1.4709,1.4719,1.4755,1.4788,1.482,1.4836,1.4883,1.4895,1.4921,1.4965,1.4984,1.5039,1.5047,1.5107,1.5107,1.5096,1.5097,1.5129,1.5126,1.5229,1.5244,1.5162,1.5162,1.5163,0,1.4636,1.4671,1.4712,1.4737,1.4758,1.4798,1.4824,1.484,1.4867,1.4909,1.4936,1.498,1.5017,1.5087,1.5111,1.5153,1.5154,1.5187,1.516,1.5156,1.5156,1.5154,1.5158,1.5192,1.5193,1.5194,1.5194,0,1.4709,1.4717,1.4755,1.4796,1.4827,1.486,1.4893,1.4913,1.4934,1.4964,1.5009,1.5037,1.5092,1.5137,1.5179,1.52,1.5201,1.5202,1.5212,1.521,1.5203,1.5208,1.511,1.52,1.52,1.5199,1.5199,1.5199,1.476,1.4791,1.4826,1.4868,1.4894,1.4924,1.4956,1.4977,1.5014,1.5061,1.5067,1.5116,1.515,1.5208,1.523,1.5268,1.526,1.5274,1.5278,1.5281,1.5284,1.5196,1.5276,1.5276,1.5275,1.5275,1.5275,0,1.4835,1.4857,1.4895,1.494,1.4973,1.4971,1.5006,1.5034,1.5077,1.5108,1.5144,1.5196,1.5238,1.5266,1.5309,1.5334,1.5335,1.5345,1.5344,1.5349,1.5288,1.5276,1.5343,1.5343,1.5343,1.5343,1.5343,1.5343,1.4877,1.4931,1.4942,1.5009,1.503,1.5078,1.5098,1.5126,1.5152,1.521,1.5245,1.5262,1.5292,1.5338,1.5377,1.5383,1.54,1.541,1.5416,1.536,1.5353,1.5346,1.5334,1.5413,1.5413,1.5473,1.5474,1.5474]}]]